Regional Weather Roundup
Issued by NWS Jackson, KY

Home | Current Version | Previous Version | Graphics & Text | Print | Product List | Glossary On
Versions: 1 2 3 4 5 6 7 8 9 10 11 12 13 14 15 16 17 18 19 20 21 22 23 24 25 26 27 28 29 30 31 32 33 34 35 36 37 38 39 40 41 42 43 44 45 46 47 48 49 50
000
ASUS43 KJKL 110019
RWRJKL

EAST KENTUCKY HOURLY WEATHER ROUNDUP
NATIONAL WEATHER SERVICE JACKSON KY
800 PM EDT THU JUL 10 2014

NOTE: "FAIR" INDICATES FEW OR NO CLOUDS BELOW 12,000 FEET WITH
NO SIGNIFICANT WEATHER AND/OR OBSTRUCTIONS TO VISIBILITY.

* THESE REPORTS ARE NOT UNDER NWS QUALITY CONTROL AND MAY NOT
  REPORT WEATHER SUCH AS PRECIPITATION AND FOG.

KYZ079-080-083-085-087-088-110-112-115-119-120-110100
...EASTERN KENTUCKY...

CITY           SKY/WX    TMP DP  RH WIND       PRES   REMARKS
JACKSON        CLEAR     79  57  46 VRB3      30.10R
6HR MIN TEMP:  79; 6HR MAX TEMP:  86;

LONDON         MOCLDY    82  63  52 N6        30.09R
6HR MIN TEMP:  81; 6HR MAX TEMP:  89;

SOMERSET*      SUNNY     81  57  44 N7        30.09R
MONTICELLO*    MOSUNNY   82  65  56 N7        30.09R
6HR MIN TEMP:  82; 6HR MAX TEMP:  90;

MIDDLESBORO*   MOCLDY    81  65  59 CALM      30.08R
6HR MIN TEMP:  81; 6HR MAX TEMP:  86;

HARLAN APT*    PTCLDY    77  59  53 MISG      30.10R
BLACK MTN*       N/A     66  57  72 N3          N/A
PIKEVILLE APT* CLEAR     77  64  65 CALM      30.10
BIG SANDY*     CLEAR     79  64  59 CALM      30.09S
6HR MIN TEMP:  79; 6HR MAX TEMP:  85;

MOREHEAD APT*    N/A     79  59  50 CALM      30.12R
ASHLAND*       CLEAR     79  61  53 NE3       30.07R
$$

KYZ035-036-041-042-044-050-067-078-099-110100
...CENTRAL KENTUCKY...

CITY           SKY/WX    TMP DP  RH WIND       PRES   REMARKS
MT STERLING*   CLEAR     81  61  50 NE3       30.10S
FLEMING/MASON* CLEAR     79  59  50 N6        30.10S
DANVILLE*      MOSUNNY   79  59  50 NE5       30.10R
RICHMOND*      MOSUNNY   79  64  61 CALM      30.09R
LEXINGTON      SUNNY     82  59  45 N7        30.10R
6HR MIN TEMP:  82; 6HR MAX TEMP:  87;

FRANKFORT      SUNNY     82  56  40 N7        30.08R
6HR MIN TEMP:  82; 6HR MAX TEMP:  86;

$$

KYZ091>093-OHZ055-061-077-WVZ005-015-034-035-042-110100
...SOUTHERN OHIO/WEST VIRGINIA...

CITY           SKY/WX    TMP DP  RH WIND       PRES   REMARKS
COVINGTON      MOSUNNY   79  54  41 N10       30.10R
COLUMBUS       PTCLDY    78  54  43 N10       30.10R
DAYTON         MOSUNNY   76  57  51 N7        30.14R
WILMINGTON     SUNNY     76  57  51 N8        30.11R
HUNTINGTON     MOCLDY    79  60  52 N3        30.08R
CHARLESTON     TSTM      79  67  66 N8        30.08R
PINEVILLE*     MOCLDY    76  68  76 MISG      30.16R
BECKLEY        MOCLDY    76  60  57 N8        30.16R
BLUEFIELD      MOCLDY    77  54  44 CALM      30.17R
$$

VAZ002-007-008-TNZ017-027-036-066-071-110100
...SOUTHWEST VIRGINIA/EAST TENNESSEE...

CITY           SKY/WX    TMP DP  RH WIND       PRES   REMARKS
WISE*          PTCLDY    77  54  44 N3        30.17R
JONESVILLE*    PTCLDY    82  64  54 CALM      30.10S
ABINGDON*      MOCLDY    79  64  60 CALM      30.13R
BRISTOL        MOCLDY    82  61  48 N6        30.09R
KNOXVILLE      MOCLDY    80  65  59 E7        30.05R
OAK RIDGE      MOCLDY    81  67  62 CALM      30.07S
CROSSVILLE     PTSUNNY   78  60  53 N3        30.12S
NASHVILLE      PTSUNNY   85  60  42 N8        30.06R
$$

...KEY TO REMARKS...
VSB - VISIBILITY IN MILES
WCI - WIND CHILL INDEX
HX  - HEAT INDEX

$$


USA.gov is the U.S. government's official web portal to all federal, state and local government web resources and services.